Location: Borz?cin
(51.1714°N, 19.6030°E)
Time: 08:38:04
(UTC+00:00)

Cosmos 2208 Rocket - Pass Details

Date: 19 May 2025
Orbit: 752 x 801 km, 74.0° (Epoch: 16 June)

Event Time Altitude Azimuth Distance (km) Brightness Sun altitude
Exits shadow 20:55:04 - 211° (SSW) 2,860 6.6 -15.4°
Reaches altitude 10° 20:56:22 10° 213° (SSW) 2,357 6.2 -15.4°
Maximum altitude 21:01:43 69° 297° (WNW) 843 4.3 -15.8°
Drops below altitude 10° 21:07:02 10° 21° (NNE) 2,342 7.2 -16.1°
Sets 21:09:26 0° 24° (NNE) 3,266 8.0 -16.2°
